User: anonymous   Login
Location: Unspecified
(0.0000°N, 0.0000°E)
Time: 12:49:49
(UTC+00:00)
Language:

Astrid - Orbit

View from above orbital plane
View from above orbital plane
View from above satellite
View from above satellite

Ground track
Ground track

The orbit data is extracted from the following two-line orbital elements,

1 23464U 95002B   17230.18185874  .00000071  00000-0  60234-4 0  9997
2 23464  82.9246 243.4888 0042470 107.0607 253.5207 13.72527030130061
Epoch (UTC): 18 August 2017 04:21:52
Eccentricity: 0.0042470
inclination: 82.9246°
perigee height: 959 km
apogee height: 1022 km
right ascension of ascending node: 243.4888°
argument of perigee: 107.0607°
revolutions per day: 13.72527030
mean anomaly at epoch: 253.5207°
orbit number at epoch: 13006

The dashed part of the orbit path shows where the satellite is in the earth's shadow,  

DLR